"startDT [UTC]","vpos","CH4 [ppm]","stdev(CH4) [ppm]","CO2 [ppm]","stdev(CO2) [ppm]","H2O [ppm]","stdev(H2O)","p_LGR [torr]","T_LGR [C]","mt1_LGR [us]","mt2_LGR [us]","T_ECpre [C]","T_EC1 [C]","T_EC2 [C]","p_inlet [hPa]","p_in [hPa]","p_out [hPa]","T_inlet [C]","RH_inlet [%]","dwpt_inlet [C]","T_vent [C]","RH_vent [%]","dwpt_vent [C]","flow_vent [l min-1]","flow_inlet [l min-1]","dwpt_sample [C]","T_room [C]"
2012-03-01 00:00:00,0.0,1.9110,0.0007,402.29,0.27,-1.0,0.0,138.24,23.39,24.57,36.24,0.04,-272.73,-272.73,-46,549,-932,18.3,1.0,-38.5,18.4,1.1,-37.9,5.73,2.51,-36.0,23.3
2012-03-01 00:01:00,0.0,1.9110,0.0010,402.21,0.25,-1.0,0.0,138.24,23.39,24.58,36.24,0.04,-272.73,-272.73,-46,549,-932,18.3,1.0,-38.5,18.4,1.1,-37.9,5.73,2.38,-36.0,23.3
2012-03-01 00:02:00,0.0,1.9109,0.0010,402.20,0.28,-1.0,0.0,138.24,23.39,24.57,36.25,0.04,-272.73,-272.73,-46,549,-933,18.3,1.0,-38.5,18.4,1.1,-38.0,5.73,2.50,-36.0,23.4
2012-03-01 00:03:00,0.0,1.9108,0.0009,402.14,0.24,-1.0,0.0,138.24,23.38,24.58,36.25,0.04,-272.73,-272.73,-46,549,-933,18.3,1.0,-38.4,18.4,1.1,-37.9,5.73,2.40,-36.0,23.4
2012-03-01 00:04:00,0.0,1.9099,0.0009,402.18,0.31,-1.0,0.0,138.24,23.38,24.58,36.24,0.04,-272.73,-272.72,-46,549,-933,18.3,1.0,-38.4,18.4,1.1,-37.9,5.73,2.48,-36.0,23.4
2012-03-01 00:05:00,0.0,1.9099,0.0008,402.16,0.27,-1.0,0.0,138.24,23.38,24.57,36.25,0.04,-272.73,-272.73,-46,549,-933,18.3,1.0,-38.5,18.4,1.1,-37.9,5.73,2.42,-36.0,23.4
2012-03-01 00:06:00,0.0,1.9099,0.0009,402.18,0.30,-1.0,0.0,138.24,23.38,24.57,36.25,0.04,-272.73,-272.73,-46,549,-933,18.3,1.0,-38.5,18.4,1.1,-37.9,5.73,2.46,-36.0,23.4
2012-03-01 00:07:00,0.0,1.9098,0.0008,402.25,0.24,-1.0,0.0,138.24,23.38,24.58,36.24,0.04,-272.73,-272.73,-46,549,-933,18.3,1.1,-38.1,18.4,1.1,-37.6,5.73,2.45,-36.0,23.4
2012-03-01 00:08:00,0.0,1.9098,0.0010,402.21,0.27,-1.0,0.0,138.24,23.38,24.58,36.24,0.04,-272.73,-272.73,-46,549,-932,18.3,1.1,-37.7,18.4,1.2,-37.1,5.73,2.42,-36.0,23.4
2012-03-01 00:09:00,0.0,1.9091,0.0009,402.26,0.27,-1.0,0.0,138.23,23.38,24.58,36.24,0.04,-272.72,-272.73,-46,549,-932,18.3,1.1,-38.2,18.4,1.1,-37.6,5.73,2.48,-36.0,23.4
2012-03-01 00:10:00,0.0,1.9091,0.0009,402.18,0.22,-1.0,0.0,138.24,23.38,24.58,36.25,0.04,-272.73,-272.73,-46,549,-933,18.3,1.1,-38.3,18.4,1.1,-37.7,5.73,2.39,-36.0,23.4
2012-03-01 00:11:00,0.0,1.9099,0.0008,402.10,0.29,-1.0,0.0,138.24,23.38,24.58,36.25,0.04,-272.73,-272.73,-46,549,-932,18.3,1.1,-38.2,18.4,1.1,-37.7,5.73,2.50,-36.0,23.4
2012-03-01 00:12:00,0.0,1.9094,0.0008,402.20,0.26,-1.0,0.0,138.24,23.38,24.57,36.24,0.04,-272.73,-272.73,-46,549,-932,18.3,1.1,-38.1,18.4,1.1,-37.4,5.73,2.38,-36.0,23.4
2012-03-01 00:13:00,0.0,1.9093,0.0009,402.14,0.33,-1.0,0.0,138.23,23.38,24.58,36.25,0.04,-272.73,-272.73,-46,549,-932,18.3,1.1,-37.9,18.4,1.1,-37.4,5.73,2.51,-36.0,23.4
2012-03-01 00:14:00,0.0,1.9093,0.0008,402.14,0.29,-1.0,0.0,138.24,23.38,24.57,36.25,0.04,-272.73,-272.73,-46,549,-933,18.3,1.1,-37.9,18.4,1.1,-37.4,5.73,2.37,-36.0,23.4
2012-03-01 00:15:00,0.0,1.9098,0.0009,402.22,0.25,-1.0,0.0,138.24,23.38,24.57,36.24,0.04,-272.73,-272.73,-46,549,-932,18.3,1.1,-38.0,18.4,1.1,-37.4,5.73,2.51,-35.9,23.4
2012-03-01 00:16:00,0.0,1.9094,0.0011,402.13,0.32,-1.0,0.0,138.24,23.38,24.58,36.25,0.04,-272.73,-272.73,-47,549,-932,18.3,1.1,-37.7,18.4,1.2,-37.2,5.73,2.37,-35.9,23.4
2012-03-01 00:17:00,0.0,1.9096,0.0009,402.22,0.24,-1.0,0.0,138.24,23.38,24.57,36.24,0.04,-272.73,-272.73,-46,549,-932,18.3,1.1,-37.7,18.4,1.2,-37.2,5.73,2.50,-35.9,23.4
2012-03-01 00:18:00,0.0,1.9090,0.0009,402.21,0.26,-1.0,0.0,138.24,23.37,24.58,36.24,0.04,-272.73,-272.73,-47,549,-932,18.3,1.1,-37.7,18.4,1.2,-37.2,5.73,2.40,-35.9,23.4
2012-03-01 00:19:00,0.0,1.9091,0.0009,402.12,0.30,-1.0,0.0,138.24,23.37,24.58,36.24,0.04,-272.73,-272.73,-46,549,-932,18.3,1.1,-37.8,18.4,1.2,-37.2,5.73,2.46,-35.9,23.4
2012-03-01 00:20:00,0.0,1.9091,0.0009,402.17,0.27,-1.0,0.0,138.24,23.37,24.57,36.24,0.04,-272.73,-272.73,-47,549,-932,18.3,1.1,-37.6,18.4,1.2,-37.0,5.73,2.43,-35.9,23.4
2012-03-01 00:21:00,0.0,1.9095,0.0008,402.13,0.30,-1.0,0.0,138.24,23.37,24.57,36.24,0.04,-272.73,-272.73,-46,549,-932,18.3,1.2,-37.5,18.4,1.2,-37.0,5.73,2.44,-35.9,23.4
2012-03-01 00:22:00,0.0,1.9098,0.0008,402.20,0.30,-1.0,0.0,138.24,23.38,24.58,36.24,0.04,-272.73,-272.73,-46,549,-932,18.3,1.2,-37.5,18.4,1.2,-37.0,5.73,2.46,-35.9,23.4
2012-03-01 00:23:00,0.0,1.9108,0.0009,402.18,0.28,-1.0,0.0,138.23,23.38,24.57,36.24,0.04,-272.72,-272.73,-46,549,-933,18.3,1.2,-37.5,18.4,1.2,-36.9,5.73,2.41,-35.9,23.4
2012-03-01 00:24:00,0.0,1.9101,0.0008,402.16,0.30,-1.0,0.0,138.24,23.38,24.58,36.25,0.04,-272.73,-272.73,-46,549,-932,18.3,1.2,-37.3,18.4,1.2,-36.7,5.73,2.49,-35.9,23.4
2012-03-01 00:25:00,0.0,1.9098,0.0010,402.14,0.23,-1.0,0.0,138.24,23.38,24.58,36.25,0.04,-272.73,-272.73,-46,549,-932,18.3,1.2,-37.2,18.4,1.2,-36.8,5.73,2.38,-35.9,23.4
2012-03-01 00:26:00,0.0,1.9101,0.0008,402.17,0.27,-1.0,0.0,138.24,23.38,24.58,36.25,0.04,-272.73,-272.73,-46,549,-932,18.3,1.2,-37.2,18.4,1.2,-36.8,5.73,2.51,-35.9,23.4
2012-03-01 00:27:00,0.0,1.9100,0.0008,402.24,0.28,-1.0,0.0,138.24,23.38,24.57,36.24,0.04,-272.73,-272.73,-46,549,-932,18.3,1.2,-37.2,18.4,1.2,-36.6,5.73,2.37,-35.9,23.5
2012-03-01 00:28:00,0.0,1.9099,0.0008,402.14,0.27,-1.0,0.0,138.24,23.38,24.58,36.25,0.04,-272.73,-272.73,-46,549,-933,18.3,1.2,-37.0,18.4,1.3,-36.5,5.73,2.52,-35.9,23.5
2012-03-01 00:29:00,0.0,1.9104,0.0010,402.22,0.28,-1.0,0.0,138.24,23.38,24.57,36.24,0.04,-272.73,-272.73,-46,549,-933,18.3,1.2,-37.0,18.4,1.3,-36.6,5.73,2.38,-35.9,23.5
2012-03-01 00:30:00,0.0,1.9106,0.0009,402.19,0.27,-1.0,0.0,138.24,23.38,24.57,36.24,0.04,-272.73,-272.73,-46,549,-932,18.3,1.2,-37.0,18.4,1.3,-36.4,5.73,2.50,-35.8,23.5
2012-03-01 00:31:00,0.0,1.9103,0.0008,402.09,0.23,-1.0,0.0,138.24,23.38,24.58,36.25,0.04,-272.73,-272.73,-46,549,-932,18.3,1.2,-36.8,18.4,1.3,-36.3,5.73,2.39,-35.9,23.4
2012-03-01 00:32:00,0.0,1.9102,0.0009,402.18,0.29,-1.0,0.0,138.24,23.38,24.57,36.24,0.04,-272.73,-272.72,-46,549,-933,18.3,1.2,-36.7,18.4,1.3,-36.3,5.73,2.46,-35.8,23.4
2012-03-01 00:33:00,0.0,1.9105,0.0009,402.28,0.32,-1.0,0.0,138.24,23.38,24.57,36.25,0.04,-272.72,-272.72,-46,549,-933,18.3,1.3,-36.6,18.4,1.3,-36.1,5.73,2.44,-35.8,23.4
2012-03-01 00:34:00,0.0,1.9099,0.0008,402.17,0.30,-1.0,0.0,138.24,23.37,24.58,36.24,0.04,-272.73,-272.73,-46,549,-932,18.3,1.3,-36.6,18.4,1.3,-36.0,5.73,2.42,-35.8,23.4
2012-03-01 00:35:00,0.0,1.9099,0.0009,402.20,0.28,-1.0,0.0,138.24,23.37,24.58,36.24,0.04,-272.73,-272.72,-46,549,-933,18.3,1.3,-36.3,18.4,1.3,-35.9,5.73,2.49,-35.8,23.4
2012-03-01 00:36:00,0.0,1.9095,0.0011,402.21,0.25,-1.0,0.0,138.24,23.37,24.58,36.24,0.04,-272.73,-272.73,-46,549,-932,18.3,1.3,-36.4,18.4,1.3,-35.9,5.73,2.38,-35.8,23.4
2012-03-01 00:37:00,0.0,1.9099,0.0009,402.23,0.29,-1.0,0.0,138.24,23.37,24.57,36.25,0.04,-272.72,-272.72,-46,549,-932,18.3,1.3,-36.3,18.4,1.4,-35.7,5.73,2.51,-35.8,23.4
2012-03-01 00:38:00,0.0,1.9099,0.0008,402.25,0.30,-1.0,0.0,138.24,23.37,24.58,36.24,0.04,-272.73,-272.73,-46,549,-932,18.3,1.3,-36.4,18.4,1.4,-35.7,5.73,2.37,-35.8,23.4
2012-03-01 00:39:00,0.0,1.9099,0.0008,402.19,0.23,-1.0,0.0,138.23,23.38,24.58,36.24,0.04,-272.73,-272.73,-46,549,-932,18.3,1.3,-36.3,18.4,1.3,-35.9,5.73,2.50,-35.8,23.4
2012-03-01 00:40:00,0.0,1.9098,0.0008,402.20,0.24,-1.0,0.0,138.24,23.38,24.58,36.24,0.04,-272.73,-272.73,-46,549,-932,18.3,1.3,-36.3,18.4,1.3,-35.9,5.73,2.39,-35.8,23.4
2012-03-01 00:41:00,0.0,1.9094,0.0008,402.23,0.30,-1.0,0.0,138.23,23.37,24.57,36.24,0.04,-272.73,-272.73,-46,549,-933,18.3,1.3,-36.3,18.4,1.4,-35.7,5.73,2.47,-35.7,23.4
2012-03-01 00:42:00,0.0,1.9089,0.0009,402.07,0.26,-1.0,0.0,138.24,23.37,24.58,36.25,0.04,-272.73,-272.72,-46,549,-933,18.3,1.3,-36.2,18.4,1.4,-35.7,5.73,2.44,-35.7,23.4
2012-03-01 00:43:00,0.0,1.9090,0.0010,402.18,0.31,-1.0,0.0,138.23,23.37,24.58,36.25,0.04,-272.73,-272.73,-46,549,-933,18.3,1.3,-36.1,18.4,1.4,-35.7,5.73,2.41,-35.7,23.4
2012-03-01 00:44:00,0.0,1.9093,0.0011,402.28,0.26,-1.0,0.0,138.24,23.37,24.57,36.24,0.04,-272.73,-272.73,-46,549,-932,18.3,1.3,-36.1,18.4,1.4,-35.6,5.73,2.49,-35.8,23.4
2012-03-01 00:45:00,0.0,1.9095,0.0009,402.13,0.31,-1.0,0.0,138.23,23.37,24.57,36.25,0.04,-272.73,-272.73,-46,549,-933,18.3,1.3,-36.1,18.4,1.4,-35.7,5.73,2.38,-35.8,23.4
2012-03-01 00:46:00,0.0,1.9094,0.0008,402.15,0.26,-1.0,0.0,138.24,23.37,24.57,36.25,0.04,-272.73,-272.72,-46,549,-933,18.3,1.3,-36.2,18.4,1.4,-35.7,5.73,2.51,-35.8,23.4
2012-03-01 00:47:00,0.0,1.9094,0.0009,402.24,0.29,-1.0,0.0,138.23,23.38,24.58,36.24,0.04,-272.72,-272.73,-46,549,-933,18.3,1.3,-36.2,18.5,1.4,-35.6,5.73,2.37,-35.8,23.4
2012-03-01 00:48:00,0.0,1.9093,0.0007,402.19,0.33,-1.0,0.0,138.24,23.38,24.58,36.24,0.04,-272.73,-272.73,-46,549,-933,18.3,1.3,-36.3,18.4,1.3,-35.8,5.73,2.50,-35.8,23.4
2012-03-01 00:49:00,0.0,1.9095,0.0008,402.14,0.26,-1.0,0.0,138.23,23.38,24.57,36.25,0.04,-272.73,-272.73,-46,549,-933,18.3,1.3,-36.3,18.4,1.3,-35.9,5.73,2.39,-35.8,23.4
2012-03-01 00:50:00,0.0,1.9093,0.0008,402.17,0.25,-1.0,0.0,138.24,23.37,24.57,36.24,0.04,-272.73,-272.73,-46,549,-933,18.3,1.3,-36.3,18.4,1.3,-35.9,5.73,2.46,-35.6,23.4
2012-03-01 00:51:00,0.0,1.9095,0.0010,402.21,0.29,-1.0,0.0,138.23,23.37,24.58,36.24,0.04,-272.73,-272.73,-46,549,-933,18.3,1.3,-36.2,18.4,1.4,-35.7,5.73,2.45,-35.2,23.4
2012-03-01 00:52:00,0.0,1.9091,0.0009,402.08,0.25,-1.0,0.0,138.23,23.37,24.57,36.25,0.04,-272.73,-272.73,-46,549,-932,18.4,1.3,-36.3,18.4,1.3,-35.8,5.73,2.42,-35.2,23.4
2012-03-01 00:53:00,0.0,1.9095,0.0010,402.26,0.26,-1.0,0.0,138.24,23.38,24.57,36.24,0.04,-272.73,-272.73,-46,549,-932,18.4,1.3,-36.3,18.5,1.3,-35.8,5.73,2.50,-35.2,23.4
2012-03-01 00:54:00,0.0,1.9096,0.0010,402.24,0.28,-1.0,0.0,138.23,23.38,24.57,36.24,0.04,-272.73,-272.73,-46,549,-933,18.4,1.3,-36.3,18.4,1.4,-35.7,5.73,2.37,-35.2,23.4
2012-03-01 00:55:00,0.0,1.9094,0.0009,402.14,0.24,-1.0,0.0,138.24,23.38,24.57,36.24,0.04,-272.73,-272.73,-46,549,-933,18.4,1.3,-36.3,18.5,1.4,-35.7,5.73,2.51,-35.2,23.4
2012-03-01 00:56:00,0.0,1.9097,0.0010,402.21,0.28,-1.0,0.0,138.23,23.38,24.57,36.24,0.04,-272.73,-272.73,-46,549,-932,18.4,1.3,-36.1,18.5,1.4,-35.6,5.73,2.37,-35.2,23.4
2012-03-01 00:57:00,0.0,1.9096,0.0010,402.23,0.27,-1.0,0.0,138.24,23.38,24.58,36.24,0.04,-272.73,-272.73,-46,549,-932,18.4,1.3,-36.1,18.5,1.4,-35.7,5.73,2.48,-35.2,23.5
2012-03-01 00:58:00,0.0,1.9099,0.0008,402.23,0.26,-1.0,0.0,138.23,23.38,24.58,36.24,0.04,-272.73,-272.73,-46,549,-932,18.4,1.3,-36.3,18.5,1.4,-35.7,5.73,2.42,-35.2,23.4
2012-03-01 00:59:00,0.0,1.9095,0.0009,402.10,0.27,-1.0,0.0,138.24,23.38,24.58,36.25,0.04,-272.73,-272.73,-46,549,-932,18.4,1.3,-36.3,18.5,1.4,-35.7,5.73,2.44,-35.1,23.5
2012-03-01 01:00:00,0.0,1.9104,0.0009,402.13,0.26,-1.0,0.0,138.23,23.38,24.58,36.25,0.04,-272.73,-272.73,-46,549,-933,18.4,1.3,-36.3,18.5,1.4,-35.7,5.73,2.47,-35.2,23.5
2012-03-01 01:01:00,0.0,1.9109,0.0010,402.13,0.31,-1.0,0.0,138.24,23.38,24.57,36.25,0.04,-272.72,-272.73,-46,549,-932,18.4,1.3,-36.3,18.5,1.3,-35.8,5.73,2.39,-35.1,23.5
2012-03-01 01:02:00,0.0,1.9112,0.0010,402.16,0.27,-1.0,0.0,138.23,23.38,24.57,36.24,0.04,-272.72,-272.73,-47,549,-933,18.4,1.3,-36.3,18.5,1.3,-35.8,5.73,2.51,-35.1,23.5
2012-03-01 01:03:00,0.0,1.9122,0.0009,402.24,0.26,-1.0,0.0,138.24,23.39,24.58,36.24,0.04,-272.73,-272.73,-46,550,-933,18.4,1.3,-36.3,18.5,1.3,-35.9,5.73,2.36,-35.1,23.4
2012-03-01 01:04:00,0.0,1.9122,0.0007,402.17,0.28,-1.0,0.0,138.23,23.39,24.58,36.25,0.04,-272.73,-272.73,-46,549,-932,18.4,1.3,-36.3,18.5,1.3,-35.8,5.73,2.50,-35.1,23.4
2012-03-01 01:05:00,0.0,1.9119,0.0009,402.17,0.25,-1.0,0.0,138.24,23.39,24.58,36.24,0.04,-272.73,-272.73,-46,549,-932,18.4,1.3,-36.3,18.5,1.3,-35.9,5.73,2.40,-35.1,23.4
2012-03-01 01:06:00,0.0,1.9116,0.0010,402.20,0.26,-1.0,0.0,138.23,23.40,24.58,36.24,0.04,-272.73,-272.73,-46,549,-932,18.4,1.3,-36.3,18.5,1.3,-35.9,5.73,2.46,-35.1,23.5
2012-03-01 01:07:00,0.0,1.9109,0.0010,402.13,0.26,-1.0,0.0,138.24,23.39,24.58,36.25,0.04,-272.73,-272.73,-46,549,-932,18.4,1.3,-36.3,18.5,1.3,-35.9,5.73,2.46,-35.1,23.5
2012-03-01 01:08:00,0.0,1.9125,0.0009,402.09,0.30,-1.0,0.0,138.23,23.39,24.57,36.25,0.04,-272.73,-272.73,-47,549,-932,18.4,1.3,-36.3,18.5,1.3,-35.8,5.73,2.40,-35.1,23.5
2012-03-01 01:09:00,0.0,1.9115,0.0012,402.23,0.30,-1.0,0.0,138.24,23.40,24.58,36.24,0.04,-272.73,-272.73,-46,549,-932,18.4,1.3,-36.3,18.5,1.3,-35.8,5.73,2.51,-35.1,23.5
2012-03-01 01:10:00,0.0,1.9092,0.0010,402.13,0.30,-1.0,0.0,138.23,23.40,24.58,36.25,0.04,-272.73,-272.73,-47,549,-932,18.4,1.3,-36.3,18.5,1.3,-35.9,5.73,2.37,-35.1,23.5
2012-03-01 01:11:00,0.0,1.9099,0.0008,402.09,0.28,-1.0,0.0,138.24,23.40,24.57,36.24,0.04,-272.72,-272.73,-46,549,-932,18.4,1.3,-36.3,18.5,1.3,-35.8,5.73,2.51,-35.1,23.5
2012-03-01 01:12:00,0.0,1.9095,0.0009,402.03,0.29,-1.0,0.0,138.23,23.40,24.57,36.25,0.04,-272.73,-272.73,-47,549,-932,18.4,1.3,-36.3,18.5,1.3,-35.9,5.73,2.41,-35.1,23.5
2012-03-01 01:13:00,0.0,1.9092,0.0009,402.12,0.27,-1.0,0.0,138.24,23.40,24.58,36.24,0.04,-272.72,-272.73,-46,549,-932,18.4,1.3,-36.3,18.5,1.3,-35.9,5.73,2.44,-35.1,23.5
2012-03-01 01:14:00,0.0,1.9101,0.0009,402.09,0.29,-1.0,0.0,138.23,23.40,24.58,36.25,0.04,-272.73,-272.73,-47,549,-932,18.4,1.3,-36.3,18.5,1.3,-35.9,5.73,2.47,-35.1,23.5
2012-03-01 01:15:00,0.0,1.9102,0.0009,402.09,0.28,-1.0,0.0,138.23,23.40,24.58,36.25,0.04,-272.73,-272.73,-46,550,-932,18.4,1.3,-36.3,18.5,1.3,-35.9,5.73,2.38,-35.0,23.5
2012-03-01 01:16:00,0.0,1.9100,0.0010,402.11,0.28,-1.0,0.0,138.23,23.40,24.58,36.24,0.04,-272.73,-272.73,-47,549,-932,18.4,1.3,-36.4,18.5,1.3,-35.9,5.73,2.51,-35.1,23.5
2012-03-01 01:17:00,0.0,1.9097,0.0010,402.10,0.26,-1.0,0.0,138.23,23.41,24.58,36.25,0.04,-272.73,-272.73,-46,550,-932,18.4,1.3,-36.3,18.5,1.3,-35.8,5.73,2.37,-35.0,23.5
2012-03-01 01:18:00,0.0,1.9094,0.0009,402.03,0.27,-1.0,0.0,138.24,23.40,24.58,36.25,0.04,-272.73,-272.73,-47,549,-932,18.4,1.3,-36.5,18.5,1.3,-35.9,5.73,2.50,-35.0,23.5
2012-03-01 01:19:00,0.0,1.9096,0.0011,402.22,0.30,-1.0,0.0,138.23,23.40,24.57,36.24,0.04,-272.73,-272.73,-46,550,-932,18.4,1.3,-36.5,18.5,1.3,-36.0,5.73,2.43,-35.0,23.5
2012-03-01 01:20:00,0.0,1.9095,0.0009,402.08,0.23,-1.0,0.0,138.23,23.41,24.57,36.25,0.04,-272.73,-272.73,-47,550,-933,18.4,1.3,-36.5,18.5,1.3,-36.0,5.73,2.41,-35.0,23.5
2012-03-01 01:21:00,0.0,1.9101,0.0010,402.08,0.30,-1.0,0.0,138.23,23.41,24.58,36.25,0.04,-272.73,-272.73,-46,550,-933,18.4,1.3,-36.5,18.5,1.3,-35.8,5.73,2.49,-35.0,23.5
2012-03-01 01:22:00,0.0,1.9101,0.0010,402.14,0.24,-1.0,0.0,138.24,23.41,24.57,36.24,0.04,-272.73,-272.73,-47,550,-932,18.4,1.3,-36.3,18.5,1.3,-35.9,5.73,2.38,-35.0,23.5
2012-03-01 01:23:00,0.0,1.9109,0.0008,402.18,0.26,-1.0,0.0,138.23,23.41,24.58,36.24,0.04,-272.73,-272.73,-46,550,-932,18.4,1.3,-36.3,18.5,1.3,-35.8,5.73,2.50,-35.0,23.5
2012-03-01 01:24:00,0.0,1.9100,0.0009,402.15,0.26,-1.0,0.0,138.23,23.41,24.58,36.24,0.04,-272.73,-272.73,-47,550,-932,18.4,1.3,-36.2,18.5,1.4,-35.6,5.73,2.38,-35.0,23.5
2012-03-01 01:25:00,0.0,1.9096,0.0009,402.19,0.26,-1.0,0.0,138.23,23.41,24.57,36.24,0.04,-272.73,-272.73,-46,550,-933,18.4,1.3,-36.1,18.5,1.4,-35.7,5.73,2.47,-35.0,23.5
2012-03-01 01:26:00,0.0,1.9098,0.0010,402.09,0.28,-1.0,0.0,138.24,23.41,24.57,36.24,0.04,-272.73,-272.72,-46,550,-932,18.4,1.3,-36.1,18.5,1.4,-35.6,5.73,2.45,-34.9,23.5
2012-03-01 01:27:00,0.0,1.9099,0.0011,402.16,0.32,-1.0,0.0,138.23,23.41,24.58,36.24,0.04,-272.73,-272.73,-46,550,-932,18.4,1.3,-36.0,18.5,1.4,-35.4,5.73,2.40,-34.9,23.5
2012-03-01 01:28:00,0.0,1.9099,0.0009,402.11,0.25,-1.0,0.0,138.24,23.41,24.57,36.25,0.04,-272.72,-272.73,-46,550,-932,18.4,1.3,-35.8,18.5,1.4,-35.5,5.73,2.50,-34.9,23.5
2012-03-01 01:29:00,0.0,1.9098,0.0008,402.21,0.26,-1.0,0.0,138.23,23.42,24.58,36.24,0.04,-272.73,-272.73,-47,550,-932,18.4,1.3,-35.8,18.5,1.4,-35.3,5.73,2.37,-34.9,23.5
2012-03-01 01:30:00,0.0,1.9105,0.0008,402.15,0.26,-1.0,0.0,138.23,23.42,24.58,36.25,0.04,-272.73,-272.73,-46,550,-932,18.4,1.4,-35.7,18.5,1.4,-35.2,5.73,2.50,-34.9,23.5
2012-03-01 01:31:00,0.0,1.9105,0.0008,402.19,0.27,-1.0,0.0,138.23,23.42,24.58,36.24,0.04,-272.73,-272.73,-47,550,-932,18.4,1.4,-35.6,18.5,1.4,-35.1,5.73,2.42,-34.9,23.5
2012-03-01 01:32:00,0.0,1.9107,0.0009,402.06,0.30,-1.0,0.0,138.23,23.42,24.57,36.25,0.04,-272.73,-272.73,-46,550,-932,18.4,1.4,-35.5,18.5,1.4,-35.0,5.73,2.42,-34.9,23.6
2012-03-01 01:33:00,0.0,1.9114,0.0008,402.19,0.27,-1.0,0.0,138.23,23.43,24.57,36.24,0.04,-272.73,-272.73,-47,550,-932,18.4,1.4,-35.5,18.5,1.5,-35.0,5.73,2.50,-34.9,23.6
2012-03-01 01:34:00,0.0,1.9116,0.0009,402.09,0.24,-1.0,0.0,138.23,23.43,24.57,36.25,0.04,-272.73,-272.73,-46,550,-932,18.4,1.4,-35.3,18.5,1.5,-34.9,5.73,2.37,-34.9,23.5
2012-03-01 01:35:00,0.0,1.9114,0.0010,402.19,0.26,-1.0,0.0,138.23,23.43,24.57,36.24,0.04,-272.73,-272.73,-47,550,-932,18.4,1.4,-35.3,18.5,1.5,-34.9,5.73,2.50,-34.9,23.6
2012-03-01 01:36:00,0.0,1.9120,0.0009,402.09,0.26,-1.0,0.0,138.23,23.43,24.58,36.25,0.04,-272.73,-272.73,-46,550,-932,18.4,1.4,-35.1,18.5,1.5,-34.7,5.73,2.40,-34.8,23.6
2012-03-01 01:37:00,0.0,1.9117,0.0010,402.08,0.28,-1.0,0.0,138.23,23.44,24.57,36.25,0.04,-272.73,-272.73,-47,550,-932,18.4,1.5,-35.1,18.5,1.5,-34.5,5.73,2.43,-34.8,23.5
2012-03-01 01:38:00,0.0,1.9110,0.0010,402.13,0.24,-1.0,0.0,138.23,23.44,24.57,36.25,0.04,-272.72,-272.73,-46,550,-932,18.4,1.5,-34.9,18.5,1.5,-34.4,5.73,2.48,-34.8,23.5
2012-03-01 01:39:00,0.0,1.9116,0.0008,402.12,0.25,-1.0,0.0,138.23,23.45,24.57,36.25,0.04,-272.73,-272.73,-47,550,-932,18.5,1.5,-34.8,18.5,1.6,-34.3,5.73,2.37,-34.8,23.5
2012-03-01 01:40:00,0.0,1.9112,0.0008,402.05,0.26,-1.0,0.0,138.23,23.45,24.58,36.25,0.04,-272.73,-272.73,-46,550,-932,18.5,1.5,-34.7,18.5,1.6,-34.2,5.73,2.51,-34.8,23.5
2012-03-01 01:41:00,0.0,1.9107,0.0009,402.09,0.29,-1.0,0.0,138.23,23.45,24.58,36.25,0.04,-272.72,-272.73,-47,550,-932,18.5,1.5,-34.6,18.5,1.6,-34.1,5.73,2.39,-34.8,23.5
2012-03-01 01:42:00,0.0,1.9100,0.0008,402.11,0.26,-1.0,0.0,138.23,23.45,24.58,36.25,0.04,-272.73,-272.73,-47,550,-933,18.4,1.5,-34.5,18.5,1.6,-33.9,5.73,2.45,-34.8,23.5
2012-03-01 01:43:00,0.0,1.9145,0.0023,402.17,0.27,-1.0,0.0,138.23,23.45,24.57,36.25,0.04,-272.72,-272.73,-46,550,-933,18.4,1.5,-34.5,18.5,1.6,-33.9,5.73,2.47,-34.8,23.5
2012-03-01 01:44:00,0.0,1.9156,0.0015,402.21,0.27,-1.0,0.0,138.23,23.45,24.57,36.25,0.04,-272.73,-272.72,-47,550,-932,18.4,1.5,-34.5,18.5,1.6,-33.9,5.73,2.37,-34.8,23.5
2012-03-01 01:45:00,0.0,1.9125,0.0010,402.11,0.28,-1.0,0.0,138.23,23.46,24.57,36.25,0.04,-272.73,-272.73,-46,550,-932,18.5,1.6,-34.4,18.5,1.6,-33.9,5.73,2.51,-34.8,23.5
2012-03-01 01:46:00,0.0,1.9109,0.0010,402.13,0.25,-1.0,0.0,138.23,23.46,24.57,36.24,0.04,-272.73,-272.73,-47,550,-932,18.5,1.6,-34.3,18.5,1.6,-33.8,5.73,2.39,-34.8,23.5
2012-03-01 01:47:00,0.0,1.9101,0.0010,402.18,0.22,-1.0,0.0,138.23,23.46,24.58,36.24,0.04,-272.73,-272.73,-46,550,-933,18.5,1.6,-34.3,18.5,1.6,-33.8,5.73,2.45,-34.7,23.6
2012-03-01 01:48:00,0.0,1.9108,0.0010,402.35,0.29,-1.0,0.0,138.23,23.46,24.57,36.24,0.04,-272.73,-272.72,-47,550,-932,18.5,1.6,-34.1,18.6,1.7,-33.6,5.73,2.47,-34.7,23.6
2012-03-01 01:49:00,0.0,1.9108,0.0009,402.51,0.29,-1.0,0.0,138.23,23.46,24.58,36.25,0.04,-272.73,-272.73,-46,550,-932,18.5,1.6,-34.1,18.6,1.7,-33.6,5.73,2.38,-34.7,23.5
2012-03-01 01:50:00,0.0,1.9108,0.0009,402.72,0.27,-1.0,0.0,138.23,23.46,24.58,36.24,0.04,-272.73,-272.73,-47,550,-932,18.5,1.6,-34.0,18.6,1.7,-33.6,5.73,2.51,-34.7,23.5
2012-03-01 01:51:00,0.0,1.9114,0.0008,402.90,0.27,-1.0,0.0,138.23,23.46,24.58,36.25,0.04,-272.73,-272.73,-46,550,-932,18.5,1.6,-33.9,18.6,1.7,-33.4,5.73,2.38,-34.7,23.5
2012-03-01 01:52:00,0.0,1.9129,0.0009,402.77,0.29,-1.0,0.0,138.23,23.46,24.57,36.25,0.04,-272.73,-272.73,-47,550,-932,18.5,1.6,-33.9,18.6,1.7,-33.4,5.73,2.46,-34.7,23.6
2012-03-01 01:53:00,0.0,1.9124,0.0010,402.86,0.27,-1.0,0.0,138.23,23.47,24.57,36.24,0.04,-272.73,-272.73,-47,550,-932,18.5,1.6,-33.8,18.6,1.7,-33.4,5.73,2.47,-34.7,23.6
2012-03-01 01:54:00,0.0,1.9121,0.0010,402.89,0.32,-1.0,0.0,138.23,23.47,24.57,36.25,0.04,-272.72,-272.73,-47,550,-932,18.5,1.6,-33.8,18.6,1.7,-33.4,5.73,2.37,-34.7,23.6
2012-03-01 01:55:00,0.0,1.9114,0.0012,403.11,0.27,-1.0,0.0,138.23,23.47,24.58,36.25,0.04,-272.73,-272.73,-47,550,-932,18.5,1.6,-33.8,18.6,1.7,-33.2,5.73,2.51,-34.7,23.6
2012-03-01 01:56:00,0.0,1.9124,0.0013,403.02,0.26,-1.0,0.0,138.23,23.47,24.58,36.24,0.04,-272.73,-272.73,-46,550,-932,18.5,1.7,-33.7,18.6,1.7,-33.2,5.73,2.39,-34.7,23.6
2012-03-01 01:57:00,0.0,1.9128,0.0009,402.90,0.31,-1.0,0.0,138.23,23.48,24.58,36.25,0.04,-272.73,-272.73,-47,550,-932,18.5,1.7,-33.6,18.6,1.8,-33.1,5.73,2.44,-34.7,23.6
2012-03-01 01:58:00,0.0,1.9137,0.0010,402.86,0.25,-1.0,0.0,138.23,23.48,24.58,36.25,0.04,-272.73,-272.73,-46,550,-932,18.5,1.7,-33.6,18.6,1.8,-33.0,5.73,2.48,-34.6,23.6
2012-03-01 01:59:00,0.0,1.9139,0.0009,402.77,0.26,-1.0,0.0,138.23,23.48,24.57,36.25,0.04,-272.73,-272.73,-47,550,-932,18.5,1.7,-33.6,18.6,1.8,-33.1,5.73,2.37,-34.6,23.6
2012-03-01 02:00:00,1.0,1.8908,0.0159,387.70,10.63,-1.0,0.0,138.23,23.49,24.58,36.25,0.04,-272.73,-272.73,-46,538,-932,18.5,1.7,-33.5,18.6,1.8,-33.1,5.73,2.48,-34.6,23.6
2012-03-01 02:01:00,1.0,1.8725,0.0009,375.63,0.28,-1.0,0.0,138.23,23.49,24.58,36.26,0.04,-272.73,-272.73,-47,536,-932,18.5,1.7,-33.4,18.6,1.8,-33.0,5.73,2.40,-34.6,23.6
2012-03-01 02:02:00,1.0,1.8729,0.0010,375.65,0.27,-1.0,0.0,138.23,23.49,24.58,36.26,0.04,-272.73,-272.73,-46,536,-932,18.5,1.7,-33.4,18.6,1.8,-32.9,5.73,2.42,-34.6,23.6
2012-03-01 02:03:00,1.0,1.8730,0.0009,375.65,0.24,-1.0,0.0,138.23,23.50,24.57,36.26,0.04,-272.73,-272.73,-46,537,-932,18.5,1.7,-33.4,18.6,1.8,-32.9,5.73,2.49,-34.6,23.6
2012-03-01 02:04:00,1.0,1.8723,0.0009,375.61,0.26,-1.0,0.0,138.23,23.50,24.57,36.26,0.04,-272.73,-272.73,-46,536,-933,18.5,1.7,-33.3,18.6,1.8,-32.9,5.73,2.37,-34.5,23.7
2012-03-01 02:05:00,0.0,1.8943,0.0159,390.69,10.58,-1.0,0.0,138.23,23.50,24.58,36.25,0.04,-272.73,-272.73,-46,549,-932,18.5,1.7,-33.2,18.6,1.8,-32.8,5.73,2.46,-34.6,23.7
2012-03-01 02:06:00,0.0,1.9131,0.0009,402.56,0.26,-1.0,0.0,138.23,23.50,24.58,36.25,0.04,-272.73,-272.73,-47,549,-932,18.5,1.7,-33.3,18.6,1.8,-32.8,5.73,2.42,-34.6,23.6
2012-03-01 02:07:00,0.0,1.9129,0.0009,402.69,0.29,-1.0,0.0,138.23,23.51,24.57,36.25,0.04,-272.72,-272.73,-46,550,-932,18.5,1.7,-33.3,18.6,1.8,-32.8,5.73,2.41,-34.5,23.6
2012-03-01 02:08:00,0.0,1.9127,0.0008,402.55,0.28,-1.0,0.0,138.23,23.51,24.57,36.24,0.04,-272.73,-272.72,-47,549,-932,18.5,1.7,-33.2,18.6,1.8,-32.6,5.73,2.49,-34.6,23.6
2012-03-01 02:09:00,0.0,1.9128,0.0008,402.56,0.32,-1.0,0.0,138.23,23.51,24.57,36.24,0.04,-272.73,-272.73,-46,550,-932,18.5,1.8,-33.1,18.6,1.8,-32.6,5.73,2.38,-34.5,23.6
2012-03-01 02:10:00,0.0,1.9119,0.0009,402.68,0.23,-1.0,0.0,138.23,23.51,24.58,36.24,0.04,-272.73,-272.73,-47,550,-932,18.5,1.8,-33.1,18.6,1.8,-32.6,5.73,2.49,-34.5,23.6
2012-03-01 02:11:00,0.0,1.9129,0.0011,402.72,0.25,-1.0,0.0,138.23,23.51,24.57,36.24,0.04,-272.72,-272.73,-46,550,-932,18.5,1.8,-33.1,18.6,1.8,-32.6,5.73,2.43,-34.5,23.7
2012-03-01 02:12:00,0.0,1.9129,0.0010,402.86,0.27,-1.0,0.0,138.23,23.51,24.58,36.24,0.04,-272.73,-272.73,-47,550,-932,18.5,1.8,-33.1,18.6,1.8,-32.6,5.73,2.40,-34.5,23.7
2012-03-01 02:13:00,0.0,1.9127,0.0007,402.90,0.26,-1.0,0.0,138.23,23.51,24.57,36.25,0.04,-272.73,-272.73,-47,550,-932,18.5,1.8,-33.1,18.6,1.8,-32.6,5.73,2.51,-34.5,23.7
2012-03-01 02:14:00,0.0,1.9126,0.0008,402.95,0.26,-1.0,0.0,138.23,23.52,24.57,36.24,0.04,-272.73,-272.73,-47,550,-933,18.6,1.8,-33.1,18.6,1.8,-32.6,5.73,2.38,-34.5,23.6
2012-03-01 02:15:00,0.0,1.9122,0.0010,402.96,0.24,-1.0,0.0,138.23,23.52,24.57,36.25,0.04,-272.73,-272.73,-47,550,-933,18.6,1.8,-33.1,18.6,1.8,-32.6,5.73,2.45,-34.5,23.7
2012-03-01 02:16:00,0.0,1.9120,0.0010,402.97,0.28,-1.0,0.0,138.23,23.52,24.58,36.25,0.04,-272.73,-272.73,-46,550,-933,18.6,1.8,-33.1,18.6,1.8,-32.6,5.73,2.48,-34.4,23.6
2012-03-01 02:17:00,0.0,1.9118,0.0009,402.98,0.27,-1.0,0.0,138.23,23.52,24.58,36.24,0.04,-272.73,-272.73,-47,550,-933,18.6,1.8,-32.9,18.7,1.9,-32.4,5.73,2.37,-34.4,23.7
2012-03-01 02:18:00,0.0,1.9114,0.0009,403.14,0.26,-1.0,0.0,138.23,23.52,24.57,36.24,0.04,-272.72,-272.73,-46,550,-933,18.6,1.8,-32.9,18.7,1.9,-32.4,5.73,2.50,-34.4,23.7